"datetime","# probes","# resolvers","can_ipv6","can_ipv6_prbs","can_tcp","can_tcp_prbs","can_tcp6","can_tcp6_prbs","does_ecs","does_ecs_prbs","does_flagday","does_flagday_prbs","does_rov4","does_rov4_prbs","does_rov6","does_rov6_prbs","does_qnamemin","doesnt_qnamemin","does_qnamemin_prbs","doesnt_qnamemin_prbs","does_nxdomain","doesnt_nxdomain","does_nxdomain_prbs","doesnt_nxdomain_prbs","has_ta_19036","hasnt_ta_19036","has_ta_19036_prbs","hasnt_ta_19036_prbs","has_ta_20326","hasnt_ta_20326","has_ta_20326_prbs","hasnt_ta_20326_prbs","can_rsamd5","cannot_rsamd5","broken_rsamd5","can_rsamd5_prbs","cannot_rsamd5_prbs","broken_rsamd5_prbs","can_dsa","cannot_dsa","broken_dsa","can_dsa_prbs","cannot_dsa_prbs","broken_dsa_prbs","can_rsasha1","cannot_rsasha1","broken_rsasha1","can_rsasha1_prbs","cannot_rsasha1_prbs","broken_rsasha1_prbs","can_dsansec3","cannot_dsansec3","broken_dsansec3","can_dsansec3_prbs","cannot_dsansec3_prbs","broken_dsansec3_prbs","can_rsansec3","cannot_rsansec3","broken_rsansec3","can_rsansec3_prbs","cannot_rsansec3_prbs","broken_rsansec3_prbs","can_rsasha256","cannot_rsasha256","broken_rsasha256","can_rsasha256_prbs","cannot_rsasha256_prbs","broken_rsasha256_prbs","can_rsasha512","cannot_rsasha512","broken_rsasha512","can_rsasha512_prbs","cannot_rsasha512_prbs","broken_rsasha512_prbs","can_eccgost","cannot_eccgost","broken_eccgost","can_eccgost_prbs","cannot_eccgost_prbs","broken_eccgost_prbs","can_ecdsa256","cannot_ecdsa256","broken_ecdsa256","can_ecdsa256_prbs","cannot_ecdsa256_prbs","broken_ecdsa256_prbs","can_ecdsa384","cannot_ecdsa384","broken_ecdsa384","can_ecdsa384_prbs","cannot_ecdsa384_prbs","broken_ecdsa384_prbs","can_ed25519","cannot_ed25519","broken_ed25519","can_ed25519_prbs","cannot_ed25519_prbs","broken_ed25519_prbs","can_ed448","cannot_ed448","broken_ed448","can_ed448_prbs","cannot_ed448_prbs","broken_ed448_prbs","can_gost","cannot_gost","broken_gost","can_gost_prbs","cannot_gost_prbs","broken_gost_prbs","can_sha384","cannot_sha384","broken_sha384","can_sha384_prbs","cannot_sha384_prbs","broken_sha384_prbs","is_internal","is_forwarding","is_external","is_internal_prbs","is_forwarding_prbs","is_external_prbs"
2017-06-20T23:59:59Z,174,316,275,151,316,174,259,144,0,18,0,0,0,0,0,0,4,312,5,172,0,315,0,173,0,0,0,0,0,0,0,0,10,303,3,11,167,20,316,0,0,174,28,4,316,0,0,174,18,3,316,0,0,174,29,4,316,0,0,174,19,3,316,0,0,174,19,3,316,0,0,174,19,3,306,7,3,166,38,6,316,0,0,174,20,3,315,0,1,173,20,4,0,312,4,0,171,7,0,312,4,0,171,7,306,7,3,166,28,6,313,0,0,173,20,3,246,28,42,138,29,52
2017-06-21T23:59:59Z,174,313,272,151,313,174,258,146,0,20,0,0,0,0,0,0,4,309,5,172,0,313,0,174,0,0,0,0,0,0,0,0,10,300,3,11,167,21,313,0,0,174,29,4,313,0,0,174,18,3,313,0,0,174,30,4,313,0,0,174,19,3,313,0,0,174,19,3,313,0,0,174,19,3,303,7,3,166,40,6,313,0,0,174,20,3,313,0,0,174,20,3,0,310,3,0,172,6,0,310,3,0,172,6,303,7,3,166,28,6,311,0,0,172,20,3,243,28,42,138,29,53
2017-06-22T23:59:59Z,173,316,274,150,316,173,259,144,1,20,0,0,0,0,0,0,5,311,6,170,0,316,0,173,0,0,0,0,0,0,0,0,9,304,3,10,166,20,316,0,0,173,30,3,316,0,0,173,19,2,315,1,0,172,32,3,316,0,0,173,20,2,316,0,0,173,20,2,316,0,0,173,20,2,307,6,3,166,40,5,316,0,0,173,21,2,316,0,0,173,21,2,0,313,3,0,171,5,0,313,3,0,171,5,308,5,3,167,27,6,314,0,0,171,20,3,244,28,44,137,30,54
2017-06-23T23:59:59Z,172,314,272,149,314,172,257,143,1,18,0,0,0,0,0,0,5,309,6,169,0,314,1,172,0,0,0,0,0,0,0,0,9,302,3,10,165,19,314,0,0,172,29,4,314,0,0,172,19,3,313,1,0,171,30,4,314,0,0,172,19,3,314,0,0,172,19,3,314,0,0,172,19,3,305,6,3,165,38,6,314,0,0,172,19,3,314,0,0,172,19,3,0,311,3,0,170,6,0,311,3,0,170,6,306,5,3,166,25,7,312,0,0,170,19,4,242,28,44,136,31,52
2017-06-24T23:59:59Z,166,306,265,144,306,166,251,139,0,18,0,0,0,0,0,0,5,301,6,163,0,306,0,166,0,0,0,0,0,0,0,0,9,294,3,10,160,18,306,0,0,166,28,3,306,0,0,166,18,2,306,0,0,166,28,3,306,0,0,166,18,2,306,0,0,166,18,2,306,0,0,166,18,2,298,5,3,160,36,5,306,0,0,166,18,2,306,0,0,166,18,2,0,303,3,0,164,5,0,303,3,0,164,5,298,5,3,160,25,6,304,0,0,164,18,3,236,26,44,132,28,51
2017-06-25T23:59:59Z,166,308,267,144,308,166,252,138,1,19,0,0,0,0,0,0,3,305,5,164,0,308,0,166,0,0,0,0,0,0,0,0,9,298,1,10,161,16,308,0,0,166,27,3,308,0,0,166,18,2,307,1,0,165,29,3,308,0,0,166,19,2,308,0,0,166,19,2,308,0,0,166,19,2,301,6,1,160,37,4,308,0,0,166,20,2,308,0,0,166,20,2,0,307,1,0,165,4,0,307,1,0,165,4,302,5,1,161,26,5,306,0,0,164,18,3,240,24,44,133,28,50
2017-06-26T23:59:59Z,170,317,276,148,317,170,260,142,0,18,0,0,0,0,0,0,3,314,5,168,0,317,0,170,0,0,0,0,0,0,0,0,10,306,1,11,165,17,317,0,0,170,28,3,317,0,0,170,18,2,317,0,0,170,28,3,317,0,0,170,18,2,317,0,0,170,18,2,317,0,0,170,18,2,309,7,1,164,38,4,316,1,0,170,20,2,316,1,0,170,20,2,0,316,1,0,169,4,0,316,1,0,169,4,309,6,2,164,26,6,314,1,0,168,19,3,250,25,42,137,29,50
2017-06-27T23:59:59Z,169,315,272,146,315,169,258,141,0,15,0,0,0,0,0,0,3,312,5,167,0,315,0,169,0,0,0,0,0,0,0,0,10,303,2,11,163,16,314,1,0,168,26,3,315,0,0,169,16,2,315,0,0,169,26,3,315,0,0,169,17,2,315,0,0,169,17,2,315,0,0,169,17,2,307,7,1,163,36,4,315,0,0,169,18,2,315,0,0,169,18,2,0,314,1,0,168,4,0,314,1,0,168,4,307,7,1,163,26,5,313,0,0,167,17,3,246,25,44,135,28,49
2017-06-28T23:59:59Z,170,315,272,147,315,170,258,141,1,18,0,0,0,0,0,0,3,312,5,168,0,315,0,170,0,0,0,0,0,0,0,0,10,304,1,11,164,18,315,0,0,170,27,4,315,0,0,170,17,4,314,1,0,169,29,4,315,0,0,170,18,4,315,0,0,170,18,3,315,0,0,170,18,3,306,8,1,162,39,6,315,0,0,170,19,4,315,0,0,170,19,4,0,314,1,1,169,5,0,314,1,0,169,5,307,7,1,163,27,7,313,0,0,168,17,4,246,25,44,136,29,50
2017-06-29T23:59:57Z,168,315,272,145,315,168,256,140,0,16,0,0,0,0,0,0,4,311,6,166,0,315,0,168,0,0,0,0,0,0,0,0,10,304,1,11,163,16,314,1,0,168,27,3,314,1,0,168,17,2,315,0,0,168,26,3,315,0,0,168,16,2,315,0,0,168,16,2,315,0,0,168,16,2,306,8,1,161,36,4,314,1,0,168,18,2,314,1,0,168,18,2,0,314,1,0,167,4,0,314,1,0,167,4,305,9,1,161,26,5,312,1,0,166,17,3,246,25,44,134,28,50
2017-06-30T23:59:59Z,169,316,273,146,316,169,257,140,1,17,0,0,0,0,0,0,4,312,6,167,0,316,0,169,0,0,0,0,0,0,0,0,10,305,1,11,164,16,316,0,0,169,27,3,316,0,0,169,17,2,315,1,0,168,28,3,316,0,0,169,17,2,316,0,0,169,17,2,316,0,0,169,17,3,306,9,1,161,38,5,316,0,0,169,17,2,316,0,0,169,17,2,0,315,1,0,168,4,0,315,1,0,168,4,307,8,1,162,26,5,314,0,0,167,16,3,245,25,46,135,28,50
2017-07-01T23:59:59Z,166,310,267,143,310,166,253,139,0,15,0,0,0,0,0,0,3,307,5,164,0,310,0,166,0,0,0,0,0,0,0,0,10,299,1,11,161,15,310,0,0,166,25,3,310,0,0,166,16,2,310,0,0,166,26,3,310,0,0,166,17,2,310,0,0,166,17,2,310,0,0,166,17,2,301,8,1,159,36,5,310,0,0,166,17,2,310,0,0,166,17,2,0,309,1,0,165,4,0,309,1,0,165,4,301,8,1,159,26,5,308,0,0,164,17,3,239,25,46,132,28,49
2017-07-02T23:59:59Z,168,315,272,145,315,168,256,139,0,17,0,0,0,0,0,0,5,310,6,165,0,315,0,168,0,0,0,0,0,0,0,0,10,304,1,11,163,16,315,0,0,168,29,3,315,0,0,168,19,2,315,0,0,168,29,3,315,0,0,168,19,2,315,0,0,168,19,2,315,0,0,168,19,2,305,9,1,160,39,4,315,0,0,168,20,2,315,0,0,168,20,2,0,314,1,0,167,4,0,314,1,0,167,4,305,9,1,160,28,5,313,0,0,166,19,3,244,25,46,134,29,50
2017-07-03T23:59:59Z,170,321,277,147,321,170,262,141,0,16,0,0,0,0,0,0,4,317,6,167,0,321,0,170,0,0,0,0,0,0,0,0,10,309,2,11,164,17,320,1,0,169,28,3,321,0,0,170,17,3,321,0,0,170,27,3,321,0,0,170,17,3,321,0,0,170,17,3,321,0,0,170,17,3,311,9,1,162,37,4,321,0,0,170,18,3,321,0,0,170,18,3,0,320,1,0,169,4,0,320,1,0,169,4,310,10,1,162,27,5,318,1,0,168,18,4,250,25,46,136,28,50
2017-07-04T23:59:59Z,171,325,280,149,325,171,263,142,0,16,0,0,0,0,0,0,4,321,5,169,0,325,0,171,0,0,0,0,0,0,0,0,10,314,1,11,166,16,325,0,0,171,27,3,325,0,0,171,18,2,325,0,0,171,28,3,325,0,0,171,19,2,325,0,0,171,19,2,325,0,0,171,19,2,314,10,1,162,39,4,325,0,0,171,20,2,325,0,0,171,20,2,0,324,1,0,170,4,0,324,1,0,170,5,314,10,1,162,29,5,323,0,0,169,19,3,251,25,49,136,29,51
2017-07-05T23:59:58Z,173,327,281,150,327,173,263,142,0,17,0,0,0,0,0,0,4,323,5,170,0,327,0,173,0,0,0,0,0,0,0,0,10,316,1,11,168,17,327,0,0,173,29,3,327,0,0,173,18,2,327,0,0,173,29,3,327,0,0,173,18,2,327,0,0,173,18,2,327,0,0,173,18,2,316,10,1,164,40,4,327,0,0,173,18,2,327,0,0,173,18,2,0,326,1,0,172,4,0,326,1,0,172,4,316,10,1,164,28,5,325,0,0,171,18,3,253,25,49,138,28,52
2017-07-06T23:59:59Z,172,325,279,149,325,172,262,142,0,16,0,0,0,0,0,0,5,320,6,169,0,325,0,172,0,0,0,0,0,0,0,0,10,314,1,11,167,16,325,0,0,172,27,3,325,0,0,172,17,2,325,0,0,172,28,3,325,0,0,172,18,2,325,0,0,172,18,2,325,0,0,172,18,2,314,10,1,163,39,4,325,0,0,172,18,2,325,0,0,172,18,2,0,324,1,0,171,4,0,324,1,0,171,4,314,10,1,163,28,5,323,0,0,170,18,3,251,25,49,137,28,51
2017-07-07T23:59:59Z,172,325,279,149,325,172,261,142,0,17,0,0,0,0,0,0,5,320,6,169,0,325,0,172,0,0,0,0,0,0,0,0,10,314,1,11,167,17,325,0,0,172,28,3,325,0,0,172,17,2,325,0,0,172,28,3,325,0,0,172,17,2,325,0,0,172,17,2,325,0,0,172,17,2,314,10,1,163,39,4,325,0,0,172,18,2,325,0,0,172,18,2,0,324,1,0,171,4,0,324,1,0,171,4,313,11,1,163,28,5,322,1,0,170,18,3,251,25,49,137,28,52
2017-07-08T23:59:59Z,171,324,278,148,324,171,261,141,0,16,0,0,0,0,0,0,4,320,5,168,0,324,0,171,0,0,0,0,0,0,0,0,10,313,1,11,166,16,323,1,0,171,28,3,323,1,0,171,18,2,324,0,0,171,27,3,324,0,0,171,17,2,324,0,0,171,17,2,324,0,0,171,17,2,313,10,1,162,38,4,323,1,0,171,19,2,323,1,0,171,19,2,0,323,1,0,170,4,0,323,1,0,170,4,313,10,1,162,27,5,322,0,0,169,17,3,252,25,47,137,28,50
2017-07-09T23:59:59Z,175,335,288,152,335,175,271,145,0,18,0,0,0,0,0,0,4,331,5,172,0,335,0,175,0,0,0,0,0,0,0,0,10,324,1,11,170,17,335,0,0,175,31,2,335,0,0,175,19,2,335,0,0,175,31,2,335,0,0,175,19,2,335,0,0,175,19,2,335,0,0,175,19,2,324,10,1,166,42,3,335,0,0,175,19,2,335,0,0,175,19,2,0,334,1,0,174,3,0,334,1,0,174,3,324,10,1,166,29,4,333,0,0,173,19,3,262,26,47,140,29,52
2017-07-10T23:59:59Z,175,334,289,153,334,175,272,146,0,16,0,0,0,0,0,0,4,330,5,172,0,334,1,175,0,0,0,0,0,0,0,0,10,323,1,11,170,15,334,0,0,175,29,2,334,0,0,175,19,2,334,0,0,175,30,2,334,0,0,175,20,2,334,0,0,175,20,2,334,0,0,175,20,2,323,10,1,166,41,3,334,0,0,175,20,2,334,0,0,175,20,2,0,333,1,0,174,3,0,333,1,0,174,3,323,10,1,166,29,5,332,0,0,173,19,4,261,26,47,140,31,50
2017-07-11T23:59:59Z,177,336,291,155,336,177,274,148,0,18,0,0,0,0,0,0,4,332,5,174,0,336,0,177,0,0,0,0,0,0,0,0,10,325,1,11,172,16,335,1,0,177,31,2,335,1,0,177,20,2,335,1,0,177,30,2,336,0,0,177,19,2,335,1,0,177,19,2,335,1,0,177,19,2,324,11,1,167,40,3,336,0,0,177,20,2,336,0,0,177,20,2,0,335,1,0,176,3,0,335,1,0,176,3,324,11,1,167,29,4,333,1,0,175,21,3,263,26,47,142,30,51
2017-07-12T23:59:59Z,174,329,284,152,329,174,267,145,0,18,0,0,0,0,0,0,4,325,5,171,0,329,0,174,0,0,0,0,0,0,0,0,10,318,1,10,169,17,329,0,0,174,31,2,329,0,0,174,19,2,329,0,0,174,31,2,329,0,0,174,19,2,329,0,0,174,19,2,329,0,0,174,19,2,318,10,1,165,41,3,329,0,0,174,19,2,329,0,0,174,19,2,0,328,1,0,173,3,0,328,1,0,173,3,318,10,1,165,28,4,327,0,0,172,19,3,256,26,47,139,29,51
2017-07-13T23:59:59Z,173,333,288,151,333,173,271,144,0,17,0,0,0,0,0,0,5,328,6,170,0,333,0,173,0,0,0,0,0,0,0,0,9,323,1,9,169,16,333,0,0,173,30,2,333,0,0,173,19,2,333,0,0,173,30,2,333,0,0,173,19,2,333,0,0,173,19,2,333,0,0,173,19,2,322,10,1,164,40,3,333,0,0,173,20,2,333,0,0,173,20,2,0,332,1,0,172,3,0,332,1,0,172,3,322,10,1,164,28,4,331,0,0,171,19,3,260,26,47,138,30,50
2017-07-14T23:59:59Z,176,341,296,154,341,176,279,147,0,18,0,0,0,0,0,0,5,336,6,173,0,341,0,176,0,0,0,0,0,0,0,0,9,331,1,9,172,17,341,0,0,176,30,2,341,0,0,176,18,2,341,0,0,176,30,2,341,0,0,176,18,2,341,0,0,176,18,2,341,0,0,176,18,2,330,10,1,167,40,3,341,0,0,176,19,2,341,0,0,176,18,2,0,340,1,0,175,3,0,340,1,0,175,3,330,10,1,167,27,4,339,0,0,174,18,3,268,26,47,141,30,50
2017-07-15T23:59:59Z,175,337,292,152,337,175,275,145,0,18,0,0,0,0,0,0,3,334,4,173,0,337,0,175,0,0,0,0,0,0,0,0,9,328,0,9,172,16,337,0,0,175,30,2,337,0,0,175,18,2,337,0,0,175,30,2,337,0,0,175,18,2,337,0,0,175,18,2,337,0,0,175,18,2,327,10,0,167,40,2,337,0,0,175,18,2,337,0,0,175,18,2,0,337,0,0,175,2,0,337,0,0,175,2,327,10,0,167,26,3,335,0,0,173,17,3,265,25,47,141,28,49
2017-07-16T23:59:59Z,175,339,294,152,339,175,277,145,0,17,0,0,0,0,0,0,3,336,4,173,0,339,0,175,0,0,0,0,0,0,0,0,9,330,0,9,172,15,339,0,0,175,28,2,339,0,0,175,17,2,339,0,0,175,29,2,339,0,0,175,18,2,339,0,0,175,18,2,339,0,0,175,18,2,329,10,0,167,39,2,339,0,0,175,18,2,339,0,0,175,18,2,0,339,0,0,175,2,0,339,0,0,175,2,329,10,0,167,27,3,337,0,0,173,18,3,267,25,47,141,28,48
2017-07-17T23:59:59Z,175,338,302,156,338,175,285,149,0,16,0,0,0,0,0,0,4,334,5,172,0,338,0,175,0,0,0,0,0,0,0,0,9,328,1,9,171,15,338,0,0,175,26,2,338,0,0,175,16,2,338,0,0,175,27,2,338,0,0,175,17,2,338,0,0,175,17,2,338,0,0,175,17,2,327,10,1,166,38,3,338,0,0,175,18,2,338,0,0,175,18,2,0,337,1,0,174,3,0,337,1,0,174,3,327,10,1,166,27,4,336,0,0,173,17,3,265,26,47,141,29,46
2017-07-18T23:59:59Z,176,339,305,159,339,176,279,148,0,19,0,0,0,0,0,0,4,335,5,173,0,339,0,176,0,0,0,0,0,0,0,0,10,328,1,10,171,18,339,0,0,176,31,2,339,0,0,176,18,2,339,0,0,176,31,3,339,0,0,176,18,2,339,0,0,176,18,2,339,0,0,176,18,2,328,10,1,167,41,3,339,0,0,176,18,2,339,0,0,176,18,2,0,338,1,0,175,3,0,338,1,0,175,3,327,10,2,167,27,5,337,0,0,174,17,3,268,26,45,142,29,49
2017-07-19T23:59:59Z,176,339,323,171,339,176,243,147,0,19,0,0,0,0,0,0,4,335,5,173,0,338,1,176,0,0,0,0,0,0,0,0,10,328,1,10,171,19,339,0,0,176,29,3,339,0,0,176,16,3,339,0,0,176,30,3,339,0,0,176,17,3,339,0,0,176,17,3,339,0,0,176,17,4,328,10,1,167,40,4,339,0,0,176,18,3,338,0,1,176,18,4,0,337,2,0,175,5,0,337,2,0,175,5,328,10,1,167,26,5,337,0,0,174,17,4,268,26,45,142,29,48
2017-07-20T23:59:59Z,176,339,323,171,339,176,200,130,0,18,0,0,0,0,0,0,4,335,5,173,0,339,0,176,0,0,0,0,0,0,0,0,10,328,1,10,171,17,339,0,0,176,29,2,339,0,0,176,17,2,339,0,0,176,30,2,339,0,0,176,18,2,339,0,0,176,18,2,339,0,0,176,18,2,328,10,1,167,40,3,339,0,0,176,19,2,339,0,0,176,19,2,0,338,1,0,175,3,0,338,1,0,175,3,328,10,1,167,26,4,337,0,0,174,18,3,267,27,45,141,32,47
2017-07-21T23:59:59Z,177,340,324,172,340,177,201,131,0,18,0,0,0,0,0,0,4,336,6,174,0,340,0,177,0,0,0,0,0,0,0,0,11,328,1,10,172,17,339,1,0,177,29,2,339,1,0,177,17,2,340,0,0,177,28,2,340,0,0,177,16,2,340,0,0,177,16,2,340,0,0,177,16,2,329,10,1,168,38,3,339,1,0,177,18,2,339,1,0,177,18,2,0,339,1,0,176,3,0,339,1,0,176,3,328,11,1,168,26,4,337,1,0,175,17,3,269,26,45,143,28,47
2017-07-22T23:59:59Z,174,334,319,169,334,174,200,127,0,16,0,0,0,0,0,0,5,329,6,171,0,334,0,174,0,0,0,0,0,0,0,0,10,323,1,10,169,15,334,0,0,174,26,2,334,0,0,174,16,2,334,0,0,174,26,2,334,0,0,174,16,2,334,0,0,174,16,2,334,0,0,174,16,2,323,10,1,165,36,3,333,1,0,174,18,2,333,1,0,174,18,2,0,333,1,0,173,3,0,333,1,0,173,3,322,11,1,165,26,4,331,1,0,172,17,3,263,26,45,140,28,45
2017-07-23T23:59:59Z,175,338,322,170,338,175,201,129,0,18,0,0,0,0,0,0,4,334,5,172,0,338,0,175,0,0,0,0,0,0,0,0,10,327,1,10,170,16,338,0,0,175,27,2,338,0,0,175,16,2,338,0,0,175,28,2,338,0,0,175,17,2,338,0,0,175,17,2,338,0,0,175,17,2,327,10,1,166,38,3,338,0,0,175,18,2,338,0,0,175,18,2,0,337,1,0,174,3,0,337,1,0,174,3,327,10,1,166,26,4,336,0,0,173,17,3,265,25,48,141,28,47
2017-07-24T23:59:59Z,179,346,327,174,346,179,202,134,0,18,0,0,0,0,0,0,6,340,6,175,0,346,0,179,0,0,0,0,0,0,0,0,10,333,3,10,173,18,346,0,0,179,28,2,346,0,0,179,16,2,346,0,0,179,29,2,346,0,0,179,17,2,346,0,0,179,17,2,346,0,0,179,17,2,332,11,3,169,39,4,346,0,0,179,17,2,346,0,0,179,17,2,0,343,3,0,177,4,0,343,3,0,177,4,332,11,3,169,30,6,344,0,0,177,16,3,271,27,48,144,29,48
2017-07-25T23:59:59Z,180,347,328,174,347,180,207,133,0,18,0,0,0,0,0,0,6,341,6,176,0,347,0,180,0,0,0,0,0,0,0,0,10,334,3,10,174,18,347,0,0,180,29,2,347,0,0,180,17,2,347,0,0,180,29,2,347,0,0,180,17,2,347,0,0,180,17,2,347,0,0,180,17,2,333,11,3,170,39,4,347,0,0,180,18,2,347,0,0,180,18,2,0,344,3,0,178,4,0,344,3,0,178,4,333,11,3,170,26,5,345,0,0,178,16,3,272,27,48,145,29,48
2017-07-26T23:59:59Z,181,350,331,176,350,181,206,135,0,20,0,0,0,0,0,0,6,344,6,177,0,350,0,181,0,0,0,0,0,0,0,0,10,337,3,10,175,20,350,0,0,181,30,2,350,0,0,181,16,2,350,0,0,181,31,2,350,0,0,181,17,2,350,0,0,181,17,2,350,0,0,181,17,2,336,11,3,171,41,4,350,0,0,181,18,2,350,0,0,181,18,2,0,347,3,0,179,4,0,347,3,0,179,4,336,11,3,171,26,5,348,0,0,179,17,3,275,27,48,146,29,50
2017-07-27T23:59:59Z,179,346,327,174,346,179,212,139,0,19,0,0,0,0,0,0,6,340,6,175,0,346,0,179,0,0,0,0,0,0,0,0,10,333,3,11,173,19,345,1,0,179,30,2,345,1,0,179,17,2,346,0,0,179,31,2,346,0,0,179,18,2,346,0,0,179,18,2,346,0,0,179,18,2,331,12,3,168,41,4,345,1,0,179,19,2,345,1,0,179,19,2,0,343,3,0,177,4,0,343,3,0,177,4,331,12,3,168,27,5,343,1,0,177,18,3,269,29,48,142,31,50
2017-07-28T23:59:59Z,175,338,319,169,338,175,201,129,0,18,0,0,0,0,0,0,6,332,6,171,0,338,0,175,0,0,0,0,0,0,0,0,10,325,3,10,169,18,338,0,0,175,28,2,338,0,0,175,15,2,338,0,0,175,28,2,338,0,0,175,15,2,338,0,0,175,15,2,338,0,0,175,15,2,324,11,3,165,38,4,337,1,0,175,17,2,337,1,0,175,17,2,0,335,3,0,173,4,0,335,3,0,173,4,323,12,3,165,25,5,336,0,0,173,15,3,262,28,48,139,30,48
2017-07-29T23:59:59Z,175,338,320,170,338,175,201,128,0,17,0,0,0,0,0,0,9,329,8,170,0,338,0,175,0,0,0,0,0,0,0,0,10,325,3,10,169,17,338,0,0,175,27,2,338,0,0,175,16,2,338,0,0,175,28,2,338,0,0,175,17,2,338,0,0,175,17,2,338,0,0,175,17,2,322,13,3,164,39,4,338,0,0,175,17,2,338,0,0,175,17,2,0,335,3,0,173,4,0,335,3,0,173,4,322,13,3,164,27,5,336,0,0,173,17,3,262,28,48,139,31,47
2017-07-30T23:59:59Z,173,332,311,167,332,173,194,124,0,18,0,0,0,0,0,0,7,325,6,168,0,332,0,173,0,0,0,0,0,0,0,0,10,319,3,11,167,17,332,0,0,173,27,2,332,0,0,173,15,2,332,0,0,173,27,2,332,0,0,173,15,2,332,0,0,173,15,2,332,0,0,173,15,2,316,13,3,162,38,4,331,1,0,173,17,2,331,1,0,173,17,2,0,329,3,0,171,4,0,329,3,0,171,4,315,14,3,162,26,5,329,1,0,171,16,3,259,27,46,139,31,46
2017-07-31T23:59:59Z,171,332,310,164,332,171,194,128,0,19,0,0,0,0,0,0,8,324,7,166,0,332,0,171,0,0,0,0,0,0,0,0,10,319,3,10,165,18,332,0,0,171,27,2,332,0,0,171,14,2,332,0,0,171,28,2,332,0,0,171,15,2,332,0,0,171,15,2,332,0,0,171,15,2,316,13,3,160,39,4,332,0,0,171,15,2,332,0,0,171,16,2,0,329,3,0,169,4,0,329,3,0,169,4,316,13,3,160,25,5,330,0,0,169,15,3,261,27,44,138,29,46
2017-08-01T23:59:59Z,172,332,310,166,332,172,199,130,0,19,0,0,0,0,0,0,7,325,6,167,0,332,1,172,0,0,0,0,0,0,0,0,10,319,3,10,166,19,332,0,0,172,27,3,332,0,0,172,14,3,332,0,0,172,28,3,332,0,0,172,15,3,332,0,0,172,15,3,332,0,0,172,15,3,316,13,3,161,39,5,332,0,0,172,16,3,332,0,0,172,16,3,0,329,3,0,170,5,0,329,3,0,170,5,316,13,3,161,25,6,330,0,0,170,14,4,261,27,44,138,30,46
2017-08-02T23:59:59Z,170,333,311,164,333,170,200,126,0,19,0,0,0,0,0,0,7,326,6,165,0,333,0,170,0,0,0,0,0,0,0,0,10,320,3,11,164,18,333,0,0,170,28,2,333,0,0,170,15,2,333,0,0,170,28,2,333,0,0,170,15,2,333,0,0,170,15,2,333,0,0,170,15,2,317,13,3,159,39,4,333,0,0,170,16,2,333,0,0,170,16,2,0,330,3,0,168,4,0,330,3,0,168,4,316,14,3,159,26,5,330,1,0,168,16,3,263,26,44,137,30,46
2017-08-03T23:59:59Z,168,324,302,161,324,168,196,127,0,19,0,0,0,0,0,0,7,317,6,163,0,324,0,168,0,0,0,0,0,0,0,0,10,311,3,10,162,18,324,0,0,168,28,2,324,0,0,168,15,2,324,0,0,168,29,2,324,0,0,168,16,2,324,0,0,168,16,2,324,0,0,168,16,2,308,13,3,157,40,4,324,0,0,168,16,2,324,0,0,168,16,2,0,321,3,0,166,4,0,321,3,0,166,4,308,13,3,157,26,5,322,0,0,166,16,3,254,26,44,135,29,46
2017-08-04T23:59:59Z,168,323,301,162,323,168,192,126,0,20,0,0,0,0,0,0,5,318,5,164,0,323,0,168,0,0,0,0,0,0,0,0,10,312,1,10,163,18,323,0,0,168,29,2,323,0,0,168,15,2,323,0,0,168,30,2,323,0,0,168,16,2,323,0,0,168,16,2,323,0,0,168,16,2,309,13,1,158,41,3,323,0,0,168,17,2,323,0,0,168,17,2,0,322,1,0,167,3,0,322,1,0,167,3,309,13,1,158,26,4,321,0,0,166,16,3,254,25,44,135,29,47
2017-08-05T23:59:59Z,169,325,303,163,325,169,195,127,0,19,0,0,0,0,0,0,5,320,5,166,0,325,0,169,0,0,0,0,0,0,0,0,10,315,0,10,165,16,325,0,0,169,30,2,325,0,0,169,17,2,325,0,0,169,31,2,325,0,0,169,18,2,325,0,0,169,18,2,325,0,0,169,18,2,312,13,0,160,42,2,325,0,0,169,19,2,325,0,0,169,19,2,0,325,0,0,169,2,0,325,0,0,169,2,312,13,0,160,28,3,323,0,0,167,18,3,255,24,46,136,29,48
2017-08-06T23:59:59Z,169,327,305,163,327,169,187,123,0,19,0,0,0,0,0,0,5,322,5,165,0,327,0,169,0,0,0,0,0,0,0,0,10,316,1,10,164,17,327,0,0,169,29,2,327,0,0,169,16,2,327,0,0,169,29,2,327,0,0,169,16,2,327,0,0,169,16,2,327,0,0,169,16,2,313,13,1,159,40,3,326,1,0,169,18,2,326,1,0,169,18,2,0,326,1,0,168,3,0,326,1,0,168,3,312,14,1,159,27,4,325,0,0,167,16,3,259,24,44,137,27,47
2017-08-07T23:59:59Z,173,329,306,165,329,173,191,127,0,21,0,0,0,0,0,0,5,324,5,169,0,329,0,173,0,0,0,0,0,0,0,0,10,318,1,10,168,19,329,0,0,173,32,2,329,0,0,173,18,2,329,0,0,173,33,2,329,0,0,173,19,2,329,0,0,173,19,2,329,0,0,173,19,2,315,13,1,163,44,3,329,0,0,173,20,2,329,0,0,173,20,2,0,328,1,0,172,3,0,328,1,0,172,3,315,13,1,163,29,4,327,0,0,171,18,3,261,24,44,141,28,49
2017-08-08T23:59:59Z,172,326,305,165,326,172,192,126,0,21,0,0,0,0,0,0,5,321,5,168,0,326,0,172,0,0,0,0,0,0,0,0,10,315,1,10,167,19,326,0,0,172,31,2,326,0,0,172,17,2,326,0,0,172,32,2,326,0,0,172,18,2,326,0,0,172,18,2,326,0,0,172,18,2,312,13,1,162,43,3,326,0,0,172,18,2,326,0,0,172,18,2,0,325,1,0,171,3,0,325,1,0,171,3,312,13,1,162,28,4,324,0,0,170,17,3,258,24,44,140,28,48
2017-08-09T23:59:59Z,175,331,310,167,331,175,194,130,0,21,0,0,0,0,0,0,8,323,7,170,0,331,0,175,0,0,0,0,0,0,0,0,10,318,3,10,169,20,331,0,0,175,32,2,331,0,0,175,18,2,330,1,0,175,33,2,331,0,0,175,18,2,330,1,0,175,19,2,330,1,0,175,19,2,314,14,3,164,44,4,330,1,0,175,20,2,330,1,0,175,20,2,0,328,3,0,173,4,0,328,3,0,173,4,314,14,3,164,29,5,328,1,0,173,19,3,260,27,44,141,30,49
2017-08-10T23:59:59Z,173,330,309,166,330,173,188,126,0,21,0,0,0,0,0,0,5,325,5,169,0,330,0,173,0,0,0,0,0,0,0,0,10,319,1,10,168,19,330,0,0,173,32,2,330,0,0,173,18,2,330,0,0,173,33,2,330,0,0,173,19,2,330,0,0,173,19,2,330,0,0,173,19,2,316,13,1,163,44,3,330,0,0,173,19,2,330,0,0,173,19,2,0,329,1,0,172,3,0,329,1,0,172,3,316,13,1,163,29,4,328,0,0,171,19,3,262,24,44,141,28,49
2017-08-11T23:59:59Z,168,322,302,161,322,168,190,127,0,21,0,0,0,0,0,0,5,317,4,165,0,322,0,168,0,0,0,0,0,0,0,0,10,312,0,10,164,18,322,0,0,168,32,2,322,0,0,168,18,2,322,0,0,168,32,2,322,0,0,168,18,2,322,0,0,168,18,2,322,0,0,168,18,2,308,14,0,159,43,2,321,1,0,168,20,2,321,1,0,168,20,2,0,322,0,0,168,2,0,322,0,0,168,2,307,15,0,159,29,3,320,0,0,166,18,3,257,23,42,138,27,48
2017-08-12T23:59:59Z,171,322,300,161,322,171,188,125,0,22,0,0,0,0,0,0,7,315,6,167,0,322,0,171,0,0,0,0,0,0,0,0,10,311,1,10,166,20,322,0,0,171,33,2,322,0,0,171,18,2,322,0,0,171,33,2,322,0,0,171,18,2,322,0,0,171,18,2,322,0,0,171,18,2,307,14,1,161,44,3,321,1,0,171,20,2,321,1,0,171,20,2,0,321,1,0,170,3,0,321,1,0,170,3,306,15,1,161,29,4,319,1,0,169,19,3,255,25,42,139,29,49
2017-08-13T23:59:59Z,172,324,302,162,324,172,190,125,0,23,0,0,0,0,0,0,7,317,6,168,0,324,0,172,0,0,0,0,0,0,0,0,10,313,1,10,167,21,324,0,0,172,35,2,324,0,0,172,19,2,324,0,0,172,36,2,324,0,0,172,20,2,324,0,0,172,20,2,324,0,0,172,20,2,309,14,1,162,47,3,324,0,0,172,21,2,324,0,0,172,21,2,0,323,1,0,171,3,0,323,1,0,171,3,309,14,1,162,30,4,322,0,0,170,20,3,257,25,42,140,29,50
2017-08-14T23:59:59Z,174,331,306,163,331,174,191,125,0,21,0,0,0,0,0,0,6,325,5,170,0,331,0,174,0,0,0,0,0,0,0,0,10,320,1,10,169,20,329,2,0,174,33,2,331,0,0,174,17,2,329,2,0,174,34,2,331,0,0,174,18,2,331,0,0,174,18,2,331,0,0,174,18,2,314,16,1,164,45,3,331,0,0,174,18,2,331,0,0,174,18,2,0,330,1,0,173,3,0,330,1,0,173,3,314,16,1,164,29,4,329,0,0,172,18,3,262,27,42,142,30,47
2017-08-15T23:59:59Z,174,329,304,162,329,174,195,126,0,21,0,0,0,0,0,0,8,321,6,169,0,329,0,174,0,0,0,0,0,0,0,0,10,316,3,10,168,20,327,2,0,174,31,2,329,0,0,174,16,2,327,2,0,174,32,2,329,0,0,174,17,2,329,0,0,174,17,2,329,0,0,174,17,2,310,16,3,163,43,4,329,0,0,174,18,2,329,0,0,174,18,2,0,326,3,0,172,4,0,326,3,0,172,4,310,16,3,163,28,5,327,0,0,172,17,3,262,28,39,142,30,46
2017-08-16T23:59:59Z,176,328,303,164,328,176,196,128,0,21,0,0,0,0,0,0,9,319,7,171,0,328,1,176,0,0,0,0,0,0,0,0,10,315,3,11,170,23,325,3,0,175,33,4,327,1,0,176,17,4,326,2,0,175,33,4,328,0,0,176,17,4,327,1,0,176,17,4,328,0,0,176,17,4,309,16,3,164,43,6,327,1,0,176,18,4,327,1,0,176,18,4,0,325,3,0,174,6,0,325,3,0,174,6,309,16,3,164,27,7,325,1,0,174,17,5,263,27,38,145,29,47
2017-08-17T23:59:59Z,177,334,307,165,334,177,202,131,0,22,0,0,0,0,0,0,8,326,6,172,0,334,0,177,0,0,0,0,0,0,0,0,10,321,3,11,171,23,331,3,0,176,33,3,333,1,0,177,16,3,331,3,0,176,33,3,334,0,0,177,16,3,333,1,0,177,16,3,333,1,0,177,16,3,315,16,3,165,43,5,333,1,0,177,16,3,333,1,0,177,16,3,0,331,3,0,175,5,0,331,3,0,175,5,315,16,3,165,26,6,331,1,0,175,15,4,269,27,38,146,29,47